Wind_Speed
25 25 25 24 23 23 22 22 21 20 20 19 19 19 18 18 18 17 17 17 16 16 16 16 16 16 16 16 16 17 17 18 19 19 19 19 20 20 21 22 22 21 21 21 21 21 21 21 21 21 20 19 18 16 15 16 18 19 19 19 19 20 21 21 22 22 23 23 24 22 21 20 20 21 21 21 22 23 23 24 26 24 25 26 25 24 22 23
26 26 25 24 23 23 22 21 21 21 20 20 20 20 20 20 20 20 19 19 19 19 19 19 18 19 19 19 19 20 21 22 22 22 22 22 22 23 24 24 23 23 22 22 22 22 22 22 22 21 20 18 17 17 17 18 20 21 22 22 21 23 23 23 24 25 25 25 25 25 24 22 22 23 22 20 21 23 22 24 27 25 25 27 25 23 21 22
26 25 25 24 24 23 23 22 22 22 22 21 21 22 22 22 22 22 22 22 21 21 21 21 21 21 21 22 22 22 23 25 26 25 25 25 25 26 26 25 25 24 23 23 23 24 23 23 22 21 19 18 18 19 20 21 23 23 24 24 23 25 25 25 27 27 28 27 26 27 26 25 24 24 24 22 22 23 23 24 27 26 25 27 26 22 21 21
26 25 25 25 25 24 24 24 23 23 23 23 23 24 24 24 24 24 24 24 24 24 24 24 24 24 24 24 25 25 26 28 29 28 27 27 28 27 27 27 27 26 25 24 24 24 24 23 22 21 20 19 20 22 23 24 25 25 25 26 27 29 28 27 29 29 29 28 27 28 28 27 26 25 25 26 23 20 22 25 25 26 26 25 24 21 19 20
27 26 26 26 26 26 26 26 26 26 26 26 26 26 26 26 27 27 27 27 27 27 27 27 27 27 27 27 28 28 29 31 31 30 29 30 30 30 29 28 27 26 25 25 24 24 24 24 23 22 22 22 23 24 26 26 28 28 26 27 28 30 30 28 30 30 29 30 29 30 30 29 27 27 27 27 24 19 22 26 25 26 26 24 21 20 19 20
28 28 28 28 28 28 28 28 28 28 28 28 29 28 29 29 29 29 29 30 29 30 30 30 30 30 30 30 30 30 31 34 34 32 31 32 32 31 30 28 27 26 25 25 25 25 25 25 24 25 24 25 26 26 28 29 30 29 27 27 29 30 30 29 31 31 30 32 31 32 32 30 29 29 29 27 23 20 24 28 27 26 26 23 21 20 21 21
31 31 31 31 31 31 31 31 31 31 31 31 31 31 31 31 32 32 32 32 32 32 32 32 32 32 32 32 33 33 33 36 37 34 33 33 32 31 29 28 27 26 26 26 26 26 26 27 27 28 28 28 29 29 30 31 31 30 27 28 30 30 30 31 32 31 31 32 32 33 33 30 31 31 29 26 24 23 27 30 29 28 27 25 24 24 24 23
33 33 33 33 33 33 33 34 34 34 34 34 34 34 34 34 34 34 34 34 34 34 34 35 34 34 35 34 35 34 33 38 39 35 34 33 31 30 28 28 27 27 27 27 27 28 28 29 30 31 31 30 30 30 31 32 32 30 28 29 30 30 31 32 33 32 31 32 33 34 32 30 31 31 28 26 26 27 30 31 30 31 30 29 29 28 27 26
34 33 33 33 33 33 33 34 34 34 35 35 36 36 36 37 37 37 37 37 37 37 37 37 36 36 36 34 34 32 32 37 37 34 33 32 30 29 28 28 28 28 29 29 30 31 31 32 33 33 33 31 31 32 33 34 34 32 31 31 31 31 32 33 32 32 33 34 35 34 30 28 29 30 26 26 28 29 30 31 31 32 32 32 32 31 30 29
33 32 32 32 32 32 32 32 32 33 33 33 34 35 35 36 37 37 37 37 37 37 37 36 36 35 33 32 30 27 30 35 34 33 32 31 30 29 29 29 29 29 30 31 32 33 34 34 34 34 34 33 32 33 34 35 35 34 34 33 32 32 33 33 32 32 35 36 36 35 29 25 28 28 24 27 31 30 29 31 33 34 33 34 34 33 32 31
33 33 33 33 32 32 32 32 32 32 32 32 32 33 33 34 34 34 35 35 34 34 34 33 32 31 30 28 26 25 29 33 32 32 33 32 31 30 30 31 31 32 32 33 35 35 36 36 35 36 36 34 34 35 35 36 37 36 37 35 34 35 34 33 33 33 36 37 36 38 32 25 27 28 25 28 32 31 31 30 32 35 34 34 34 34 33 32
35 35 35 35 35 35 35 34 34 33 33 32 32 32 32 32 33 33 33 33 32 32 32 32 31 30 30 27 25 27 30 31 32 34 34 33 33 32 33 33 34 35 35 36 36 37 37 37 37 37 37 37 37 37 37 37 38 38 39 39 36 37 36 33 34 35 37 37 37 41 38 30 28 30 29 31 32 32 33 31 31 33 34 34 35 34 34 33
37 37 37 37 37 37 37 37 37 36 36 35 35 34 34 34 34 34 34 33 33 34 34 34 33 33 32 29 27 30 32 32 34 35 36 36 35 35 36 36 37 37 38 38 38 38 38 38 39 39 39 39 39 39 39 39 39 39 42 42 39 39 37 34 35 35 37 39 38 44 45 36 29 30 33 34 34 34 35 32 31 33 34 34 35 35 35 35
39 39 39 39 39 38 38 38 38 38 37 37 37 37 37 37 37 37 37 37 37 37 37 37 37 37 36 33 31 33 35 35 37 38 39 38 37 38 38 39 39 39 39 39 39 39 40 40 41 41 40 41 41 41 41 42 40 40 43 44 43 43 39 36 36 35 38 41 40 45 49 42 30 28 33 36 36 36 35 33 32 33 34 33 35 36 36 36
40 40 40 40 39 39 39 39 39 39 38 38 38 38 38 38 38 38 39 39 39 40 40 40 40 41 40 36 34 35 36 38 39 40 40 40 40 40 40 41 41 41 41 41 41 41 42 42 43 43 42 42 42 42 43 44 44 43 45 46 46 47 43 40 39 36 38 43 44 46 49 46 35 29 32 35 37 38 36 33 31 33 33 33 35 36 36 37
41 41 41 41 40 40 40 40 40 40 39 39 39 39 39 39 39 39 40 40 41 41 41 42 41 43 42 37 35 37 37 39 41 41 42 41 41 41 42 43 43 43 43 43 43 43 43 44 44 44 44 43 43 44 44 47 47 45 48 48 47 48 47 45 43 39 39 44 47 47 47 47 41 33 32 34 37 39 37 34 31 32 33 34 35 35 36 36
42 42 42 42 42 42 42 42 42 41 41 41 41 41 41 41 41 41 41 42 42 42 43 43 42 43 44 40 37 37 38 40 42 42 42 42 42 42 43 43 44 44 44 44 44 44 44 45 46 46 46 43 42 44 46 49 49 48 50 50 49 49 49 48 45 42 43 45 47 48 47 47 45 39 34 34 37 39 38 35 33 33 33 35 36 36 35 35
44 44 44 44 44 43 43 43 43 43 43 42 42 42 42 42 42 43 43 43 43 43 44 44 43 43 44 41 38 38 38 40 41 42 42 42 42 42 43 44 44 44 45 45 45 45 45 46 47 48 47 43 42 45 48 50 49 50 51 51 51 51 50 49 46 45 46 45 45 47 49 48 47 44 39 35 36 38 38 36 34 33 34 35 36 36 35 35
45 45 45 45 45 45 44 44 44 44 44 44 43 43 43 43 43 44 44 43 43 43 44 44 42 43 43 41 39 39 39 40 41 42 41 41 42 43 44 44 44 45 46 46 46 45 46 48 49 50 46 43 45 48 49 49 50 51 51 51 52 52 51 49 47 48 48 47 46 46 48 50 49 47 44 39 36 36 37 37 36 35 35 35 36 36 35 34
45 45 44 45 45 45 45 45 45 45 45 46 45 45 45 45 45 46 44 44 44 44 45 45 43 43 43 43 43 42 42 42 42 42 41 42 42 43 44 45 45 46 46 46 48 47 47 50 51 49 45 45 49 51 49 48 50 52 52 52 52 52 52 49 48 50 49 49 49 47 47 49 49 48 46 43 39 36 35 36 37 36 36 37 36 36 35 34
45 45 45 45 45 45 45 45 46 46 46 47 47 47 47 47 47 48 47 45 46 46 46 46 46 46 45 46 47 46 46 46 44 43 42 43 43 44 45 45 46 47 47 47 48 48 48 51 51 47 45 47 50 51 51 50 49 51 52 52 52 51 51 50 49 51 51 51 52 50 48 47 46 47 45 44 41 36 33 34 34 35 38 38 37 36 35 34
46 46 46 46 46 47 47 47 47 48 48 48 48 49 49 49 49 50 50 48 47 47 48 49 49 49 49 50 49 48 49 49 47 45 44 44 44 45 46 45 46 47 48 48 47 48 50 51 51 47 47 49 49 49 51 51 50 50 50 51 52 51 51 52 51 51 50 51 52 51 51 48 45 44 42 42 40 36 35 33 32 33 36 38 37 37 37 36
48 48 48 48 49 49 50 50 50 50 51 51 51 51 51 51 51 51 52 52 49 47 49 50 51 52 51 52 51 50 51 50 49 47 44 44 45 45 46 46 47 48 50 49 47 49 52 53 51 47 48 50 49 49 49 50 50 50 49 51 52 50 50 52 52 51 50 50 51 50 50 47 44 42 39 39 38 36 36 35 33 32 33 34 35 36 37 37
51 50 50 50 50 51 52 52 52 52 53 53 54 54 54 54 54 53 53 54 53 50 49 50 52 54 53 54 53 53 53 51 50 49 45 45 45 44 45 46 48 49 50 48 48 49 52 54 51 48 49 50 50 50 48 48 49 49 50 50 50 48 49 49 50 51 49 48 48 47 47 46 44 43 42 40 39 39 40 39 38 37 34 34 34 35 36 36
52 51 50 50 50 51 52 53 54 54 54 55 56 56 56 56 56 56 56 57 57 55 53 53 54 55 55 55 55 54 54 52 51 50 47 45 44 42 42 42 44 45 46 45 46 49 49 50 48 47 48 48 49 48 45 45 47 49 51 49 46 46 47 46 46 49 48 48 48 46 46 47 44 42 45 46 44 45 47 45 44 43 41 40 40 39 37 37
52 51 51 51 51 52 53 54 55 55 55 56 56 56 57 57 57 57 58 58 59 58 57 56 55 55 54 54 54 53 52 50 49 48 46 44 43 42 41 41 40 41 43 42 44 46 45 44 43 45 46 45 46 44 41 44 47 50 50 45 43 44 45 45 45 47 48 49 50 49 48 50 46 43 47 50 50 52 54 52 51 50 47 46 45 42 40 40
52 52 52 53 54 54 55 55 55 56 56 56 56 56 56 56 56 56 56 57 59 58 57 57 55 54 53 52 52 51 48 47 47 45 44 43 42 42 42 42 40 40 42 42 43 43 41 40 40 42 43 43 44 42 41 42 46 48 47 43 42 42 44 45 46 48 50 51 51 51 51 52 51 49 50 53 54 57 59 57 56 55 53 50 46 43 40 40
53 53 53 55 55 55 55 55 56 56 56 56 56 56 56 55 55 53 53 54 56 56 55 54 53 52 51 50 50 48 47 45 44 43 43 42 41 40 40 40 40 39 40 40 42 41 39 38 39 40 41 42 42 42 41 42 44 46 46 45 44 44 45 47 49 51 52 54 55 54 55 55 55 54 55 57 57 60 61 59 58 56 54 53 50 47 45 44
54 54 55 55 55 54 54 54 55 54 54 53 53 53 53 52 51 49 49 52 54 55 53 52 52 51 50 49 48 46 45 44 43 43 43 42 41 40 38 38 39 39 38 39 41 40 39 39 39 39 40 40 41 42 43 43 44 46 46 48 48 48 49 50 53 55 56 58 57 56 57 58 58 57 58 60 60 62 61 59 59 56 53 56 55 51 50 51
54 55 55 55 54 52 51 51 52 52 51 50 49 49 48 47 46 47 51 54 54 53 51 50 49 48 48 48 47 47 45 45 44 44 44 43 42 41 39 39 40 39 39 40 39 39 40 40 40 41 40 42 43 44 45 46 47 48 48 51 51 52 53 54 56 57 58 60 59 58 60 59 60 59 61 60 59 63 63 59 59 58 55 55 54 51 52 55
51 52 52 52 52 51 51 51 51 49 48 47 47 46 47 47 47 49 53 53 50 48 48 48 48 47 48 48 48 48 47 46 46 44 44 43 42 42 41 42 42 42 42 42 41 41 41 42 43 44 44 45 46 48 49 49 49 50 51 52 54 55 56 56 58 58 59 61 60 61 61 61 62 61 61 62 59 63 65 61 60 61 58 54 51 54 56 57
47 49 49 49 50 52 52 52 51 49 47 47 47 47 48 50 50 51 52 50 48 49 48 50 51 50 50 50 49 49 49 48 47 45 44 43 43 42 42 43 44 44 45 46 47 47 46 46 47 47 46 47 48 49 50 50 50 51 52 53 54 56 58 59 60 60 61 61 62 63 63 64 65 62 61 63 61 61 63 62 61 61 60 56 54 58 60 59
48 49 49 49 50 51 50 50 51 51 50 49 49 49 50 53 54 54 53 51 50 51 51 51 52 51 51 51 50 49 48 48 47 47 46 45 44 44 43 44 44 46 48 50 51 52 52 52 51 50 49 49 50 50 50 51 52 51 51 51 53 55 57 59 60 59 59 59 60 63 65 67 69 67 66 66 63 62 62 63 63 62 62 60 59 61 62 62
52 51 50 48 47 47 46 47 48 50 50 50 51 51 52 55 56 56 56 53 49 48 48 49 50 50 50 49 48 48 49 50 49 48 48 47 46 46 44 44 46 48 51 52 54 55 56 56 56 56 55 54 53 52 52 53 54 54 52 52 53 54 54 56 57 57 59 59 59 63 68 70 70 70 70 68 67 67 67 67 66 65 65 64 63 63 62 62
57 57 55 52 50 49 49 49 50 50 51 51 51 52 54 56 56 56 54 50 47 48 49 49 49 49 49 49 49 50 52 54 53 51 50 50 49 48 47 47 48 49 50 51 53 55 55 56 58 59 59 58 57 56 56 55 56 57 57 56 56 55 53 53 54 56 58 60 62 65 69 71 69 68 70 70 69 69 69 68 66 65 65 64 63 62 61 62
57 58 57 56 53 52 53 53 53 53 53 53 52 52 53 53 53 53 52 49 50 53 54 53 53 53 54 54 56 57 57 57 57 56 55 54 52 51 50 49 50 49 49 50 51 53 54 56 57 57 59 59 59 60 60 59 60 61 62 61 60 56 51 50 53 54 55 59 64 67 69 70 67 66 69 69 68 67 67 66 65 64 63 61 60 60 62 65
56 55 55 55 55 55 57 57 57 57 57 58 58 56 55 55 55 56 56 55 56 57 57 58 59 59 60 60 61 61 59 57 57 56 56 55 55 53 52 52 51 51 52 52 53 54 55 56 56 57 59 61 61 61 62 61 61 61 60 59 57 55 53 53 55 58 58 62 67 67 67 66 62 61 64 65 66 67 66 64 62 61 60 59 60 63 65 67
59 58 57 58 59 60 61 62 62 63 63 64 64 63 62 63 62 59 56 54 54 56 57 59 60 61 61 61 61 60 58 56 56 55 54 55 55 55 54 54 54 54 56 57 58 60 60 61 61 61 62 63 60 59 60 59 58 56 54 54 54 55 57 56 57 60 59 61 63 62 60 60 57 57 61 62 63 63 62 61 61 61 62 62 63 64 65 66
62 63 62 62 63 62 62 62 62 61 63 65 65 64 62 62 61 57 53 51 52 54 55 55 56 57 57 56 55 55 55 54 54 55 55 55 55 56 57 58 59 60 61 61 62 64 63 63 65 64 63 63 60 58 57 55 54 54 54 55 56 57 58 58 58 59 58 60 61 59 58 57 55 56 57 57 57 59 62 64 66 66 65 64 65 65 64 64
67 68 67 65 63 60 59 59 57 56 58 60 58 58 57 57 57 55 53 53 53 54 55 55 55 56 55 54 54 55 56 56 57 58 59 60 60 61 63 64 64 64 64 63 63 62 60 60 62 60 59 60 59 56 54 52 52 54 56 57 57 57 58 59 59 57 57 58 59 59 61 59 55 55 56 56 57 61 64 66 67 66 66 67 67 65 64 64
67 67 65 63 60 58 56 58 57 54 53 53 51 52 54 54 54 54 53 54 56 58 59 60 61 62 61 61 62 63 64 64 64 65 66 67 66 66 66 65 63 62 61 60 59 58 57 57 58 56 56 57 56 54 54 54 55 56 57 57 56 57 58 59 60 57 56 58 59 61 64 62 56 55 57 58 59 61 62 63 65 66 66 67 67 66 66 67
62 62 61 60 60 58 57 58 58 57 56 55 53 54 54 53 54 55 56 57 60 62 64 66 68 68 69 70 69 68 68 68 68 68 69 69 66 64 64 62 59 57 56 56 56 56 56 56 57 57 57 56 55 55 55 57 57 57 58 57 56 56 56 58 60 60 59 61 61 62 65 64 59 57 58 59 59 59 60 62 64 66 67 68 69 70 71 71
62 61 59 58 59 59 59 59 58 58 59 58 58 59 60 59 59 61 62 63 66 68 70 71 72 73 74 74 72 70 69 69 69 69 69 69 66 64 62 59 56 54 55 56 56 56 56 56 57 57 56 56 57 56 57 58 58 58 58 57 56 57 56 57 60 61 62 63 61 63 67 65 61 58 57 59 61 62 64 65 67 69 71 73 74 74 74 74
61 60 60 59 60 62 63 62 61 61 61 61 62 64 64 65 65 66 68 69 70 71 72 73 74 74 74 74 73 71 70 69 69 68 67 66 64 62 60 56 55 54 54 56 56 57 57 56 56 56 57 59 59 57 57 58 57 56 56 55 56 56 56 56 57 58 61 61 59 63 67 64 61 60 60 62 65 66 68 68 69 70 72 73 74 75 74 72
62 63 64 65 66 67 68 66 65 66 66 66 67 67 67 68 68 68 69 70 70 71 71 72 72 71 70 70 70 69 67 66 65 64 62 61 60 58 56 55 55 55 56 57 57 58 59 59 59 59 61 63 63 60 58 59 59 58 57 57 58 57 57 57 58 59 63 65 64 67 69 68 66 66 67 68 69 70 70 71 70 71 71 71 70 68 67 66
66 68 68 68 68 69 68 66 66 67 67 67 67 67 66 67 68 67 67 68 69 69 69 69 69 68 68 68 66 65 63 61 60 60 59 58 57 56 55 56 56 57 57 57 58 59 61 62 61 62 64 65 64 63 61 62 64 64 63 63 62 62 62 63 65 68 69 71 71 71 71 72 71 69 69 71 72 73 73 73 73 74 75 75 74 73 74 76
70 70 69 68 68 69 67 66 65 65 65 64 65 64 63 64 66 66 65 66 67 66 66 66 66 66 65 63 62 61 59 58 58 58 57 56 56 57 56 56 57 57 57 58 59 60 63 64 63 63 65 65 65 65 63 64 66 67 67 66 65 65 65 66 69 70 69 71 73 71 70 73 72 69 69 71 73 75 74 74 76 77 79 80 81 83 85 86
71 70 69 68 68 68 67 66 64 63 63 63 64 63 63 63 64 64 64 64 63 62 63 63 62 61 61 59 59 59 57 57 58 57 56 56 57 58 57 57 57 57 58 59 60 61 64 66 64 64 66 66 66 66 65 66 67 68 67 67 66 66 66 67 69 69 68 72 74 72 72 75 74 72 71 72 75 77 77 78 79 79 81 82 83 84 86 87
71 70 68 68 68 67 66 64 63 63 63 63 64 63 63 63 62 62 62 61 60 59 60 60 59 58 58 57 58 58 57 58 58 57 57 57 58 58 59 59 59 59 59 60 61 62 65 67 65 66 68 68 66 66 66 67 68 68 68 67 67 67 68 68 69 69 70 74 75 75 76 78 76 75 76 76 77 79 80 80 81 82 83 84 84 85 86 87
71 69 68 68 67 65 65 64 63 63 62 63 63 62 61 60 59 60 60 59 58 57 57 57 58 57 57 56 57 58 58 58 59 59 58 58 59 60 60 60 60 60 60 61 62 64 65 67 66 67 69 69 67 66 66 67 68 69 69 69 69 69 70 70 70 70 72 75 77 77 80 81 79 79 81 81 81 82 83 83 83 84 84 85 86 86 86 87
70 69 68 67 66 65 64 64 63 63 63 63 62 60 59 58 57 57 59 58 56 56 56 56 57 57 57 57 57 58 59 59 59 60 60 60 60 60 61 61 61 61 62 62 64 65 65 66 66 66 68 69 66 66 68 69 70 72 73 71 70 71 71 72 72 73 75 77 80 82 84 85 84 83 84 85 85 85 86 86 85 86 86 87 87 88 88 88
69 68 67 67 66 65 64 63 63 63 62 61 60 58 58 57 56 56 58 58 56 56 56 56 56 57 57 58 58 59 60 59 59 60 60 60 61 61 61 61 61 62 63 63 64 64 64 65 66 65 69 70 67 67 70 71 74 76 75 72 71 72 73 75 76 77 79 81 84 86 87 87 85 82 81 84 86 86 86 86 86 87 87 87 87 87 87 87
Wind_Direction
261 263 265 266 267 269 270 271 271 271 270 269 268 266 263 262 262 263 264 265 266 268 269 271 273 275 277 279 283 286 288 288 287 287 289 289 289 290 289 288 287 286 285 285 284 284 283 284 284 286 287 287 286 284 285 291 296 300 300 302 304 299 296 300 300 299 300 301 303 305 303 301 302 303 304 303 301 297 294 289 285 286 286 284 283 283 284 284
260 261 262 263 264 265 266 267 267 267 267 267 267 266 265 264 265 266 267 268 269 270 272 273 274 276 278 280 282 285 287 287 286 286 287 288 289 289 288 287 286 285 284 283 282 281 282 282 283 284 284 283 282 282 286 291 295 297 298 300 300 296 297 300 299 299 301 301 300 300 299 296 296 299 303 302 299 298 295 286 283 287 288 287 286 286 287 287
257 258 259 260 261 262 263 264 264 265 265 265 266 266 267 267 267 268 270 271 273 274 274 275 276 278 280 281 283 285 287 286 286 286 287 288 288 288 288 287 286 284 283 282 282 282 282 282 282 282 282 280 281 283 288 291 293 296 298 299 297 294 296 297 297 298 299 299 299 297 296 294 293 294 297 297 298 300 295 285 284 290 290 288 289 290 291 291
254 255 256 258 259 260 262 263 264 264 265 266 266 267 267 268 269 270 271 273 274 275 275 276 277 279 280 282 283 285 286 286 284 285 287 287 287 287 288 288 286 284 283 282 282 282 282 282 282 281 280 280 282 286 289 291 292 294 296 296 295 294 294 295 296 296 296 297 296 295 293 292 292 291 290 290 297 302 294 288 289 292 293 292 293 295 294 292
254 255 257 258 259 261 262 263 264 265 266 266 267 267 267 268 269 269 270 272 273 274 275 276 277 278 279 281 282 283 285 284 282 283 285 285 286 288 288 286 284 282 282 281 281 282 282 281 282 281 281 283 284 286 288 290 291 293 295 294 294 293 295 297 295 295 295 294 294 292 290 290 290 287 285 287 295 300 291 288 288 291 295 298 299 298 296 293
255 257 258 259 260 261 262 263 264 265 266 266 266 267 267 267 268 268 269 270 271 273 273 274 275 276 278 279 280 282 283 282 281 282 282 283 285 287 286 283 281 280 280 280 281 282 282 283 283 283 284 286 287 288 289 290 291 292 294 293 292 293 297 298 296 297 296 294 293 289 288 289 289 285 283 287 293 293 284 281 281 284 291 296 297 295 294 295
256 257 258 259 260 261 261 262 262 263 264 265 265 266 266 267 267 268 268 269 270 271 272 273 274 275 276 278 279 281 282 281 280 281 281 282 283 283 282 280 280 279 280 281 282 283 284 285 286 287 288 288 289 291 291 291 290 292 294 292 292 295 298 298 297 299 296 294 291 287 287 288 288 287 286 288 290 284 277 276 277 279 283 288 293 294 294 296
256 257 258 259 260 260 261 261 262 262 262 263 264 264 265 266 266 267 268 269 269 270 271 272 273 274 275 276 277 279 279 277 278 279 280 280 279 279 279 278 278 280 281 282 284 285 287 288 289 290 290 290 291 292 291 291 290 292 292 291 293 296 298 298 297 298 296 293 289 287 289 289 288 290 291 292 286 277 273 273 275 277 280 285 290 293 295 296
256 257 258 258 259 260 260 261 262 262 262 263 263 264 264 265 266 266 267 268 269 270 270 271 272 273 274 275 275 277 276 274 276 278 277 277 276 276 276 276 277 278 280 282 284 286 289 290 290 291 290 291 292 291 290 290 290 292 290 290 293 295 297 298 298 297 293 290 289 290 293 294 290 289 294 292 282 275 274 276 276 276 279 283 287 292 294 295
256 256 257 258 259 260 261 261 262 263 263 263 264 264 265 266 266 267 268 268 269 270 271 271 272 272 273 273 274 276 272 271 275 277 276 276 275 275 275 275 275 276 278 281 284 286 288 289 290 289 289 291 291 290 290 290 291 291 289 289 291 292 295 297 297 295 291 291 293 293 294 295 290 289 294 289 282 280 278 279 280 279 280 282 284 287 289 290
256 256 257 258 259 260 262 262 263 264 264 265 266 266 266 267 267 268 268 269 269 270 270 271 271 272 273 273 276 275 270 272 276 276 276 276 276 276 276 276 276 277 279 282 284 286 288 288 289 288 289 290 289 289 289 290 290 289 289 288 289 291 293 296 295 293 292 294 296 294 291 289 287 290 293 287 286 289 286 284 283 282 281 280 281 282 284 285
257 258 259 260 261 262 263 264 264 265 265 266 267 267 268 268 269 269 269 269 270 270 270 270 271 272 272 274 277 275 272 275 277 277 277 278 278 278 277 277 278 279 281 283 284 286 287 287 288 288 289 289 289 289 289 288 288 289 288 286 287 288 289 292 294 295 296 296 295 291 288 286 285 289 289 287 289 292 291 290 288 284 281 278 277 278 280 280
259 260 261 262 263 264 264 265 265 265 266 266 266 267 268 268 269 269 270 270 270 270 270 271 272 272 272 273 275 274 275 276 276 277 278 278 279 279 279 279 280 280 282 283 284 285 285 286 287 287 288 289 289 289 288 286 286 287 286 285 286 285 286 289 293 297 297 294 293 290 287 286 286 289 289 288 289 289 289 290 289 285 283 280 278 277 276 276
259 260 261 262 263 263 264 265 265 265 265 266 266 267 267 268 268 269 270 270 271 271 271 272 273 273 273 274 274 273 275 275 275 276 277 278 279 279 280 280 280 281 282 283 284 284 285 286 286 287 287 288 288 289 288 287 286 286 286 286 286 284 286 289 291 294 294 291 289 287 286 287 289 290 290 290 289 287 287 288 286 284 284 283 280 278 276 275
259 260 260 261 262 262 263 264 264 265 265 266 266 266 267 267 268 269 270 271 271 272 272 273 273 273 274 274 274 273 274 275 275 275 276 278 278 278 279 280 281 282 282 283 284 284 285 285 286 286 286 287 288 288 288 287 287 287 286 285 287 287 289 290 290 291 291 288 286 284 286 290 293 292 290 291 290 289 288 289 287 283 280 280 280 280 279 277
260 261 261 261 262 262 263 264 264 265 265 266 266 267 267 268 268 269 269 270 271 271 272 273 273 274 274 274 274 273 273 274 274 275 276 276 277 278 279 279 280 281 282 283 283 284 284 284 285 285 285 285 287 288 288 286 286 287 285 285 287 288 290 290 291 293 290 286 284 285 287 291 294 294 292 292 292 291 291 292 290 284 279 277 278 280 280 279
260 261 262 262 263 263 264 264 265 265 266 266 266 267 267 268 268 268 269 269 269 270 271 271 272 273 273 274 273 272 273 273 273 274 274 275 276 277 278 278 279 280 281 281 281 282 283 283 283 283 283 284 287 288 286 284 285 286 285 286 287 287 288 289 292 294 290 286 286 287 288 289 291 291 291 291 291 292 293 295 293 288 283 280 278 278 279 279
261 262 262 263 264 264 265 265 266 266 267 267 267 268 268 268 268 268 268 268 268 269 269 269 270 271 272 273 272 272 271 272 272 273 274 275 276 277 277 278 278 279 279 280 280 281 281 282 282 281 282 285 286 284 282 283 285 286 286 287 287 288 289 291 294 293 289 287 288 289 289 288 289 291 292 290 288 289 292 295 295 292 287 283 279 277 278 278
262 263 264 265 265 266 267 267 268 269 269 269 269 269 269 269 269 269 269 269 269 269 269 269 269 270 271 272 272 271 270 269 270 271 273 275 276 277 277 277 278 278 278 279 279 280 280 280 280 280 283 286 283 279 280 283 285 285 285 287 287 288 289 291 293 291 289 289 289 288 289 289 289 291 293 292 289 286 289 291 292 293 290 285 281 278 278 278
264 265 266 266 267 268 268 269 270 271 271 272 272 271 271 271 271 270 270 270 271 270 271 272 271 271 272 274 273 272 271 270 269 271 272 273 274 274 275 275 276 276 277 277 278 278 278 278 279 280 283 283 281 281 282 283 283 284 285 286 287 288 289 290 290 289 289 290 288 287 287 287 289 291 291 291 289 286 285 286 288 290 290 286 283 281 280 279
264 266 266 267 269 269 270 271 271 272 272 273 273 273 273 272 271 271 271 270 270 272 272 272 273 274 275 275 275 276 275 274 273 273 273 273 273 273 273 274 275 275 275 274 275 276 276 276 278 280 281 279 280 283 283 282 283 283 284 285 286 287 288 288 288 288 290 290 289 288 286 285 287 288 290 291 291 290 286 282 282 285 286 286 286 285 282 280
266 267 267 268 269 270 271 271 271 272 272 273 273 274 273 273 272 272 271 269 269 271 272 273 274 275 276 276 276 277 277 278 278 276 275 274 273 272 272 273 273 273 273 273 273 275 275 275 276 278 278 277 278 280 280 282 282 282 283 284 284 286 287 287 287 288 289 289 289 288 287 287 287 286 288 290 291 293 290 284 279 278 280 284 287 287 285 283
266 268 269 270 270 271 271 271 272 272 273 273 273 273 273 274 273 273 272 271 270 269 271 273 275 276 277 277 278 279 279 280 281 279 279 277 274 272 271 271 271 272 272 273 273 273 273 273 274 275 275 275 276 276 277 279 279 281 282 282 283 285 286 287 288 288 288 288 287 287 288 289 290 290 292 292 293 295 293 292 289 283 280 282 284 284 284 285
267 268 269 270 270 270 271 271 271 272 272 272 272 272 272 273 273 273 273 273 272 272 272 274 275 277 278 279 280 281 282 283 283 283 282 279 277 275 273 271 271 271 272 272 271 270 271 272 273 273 272 273 274 274 275 276 277 279 278 278 281 284 285 286 288 288 287 286 285 287 289 290 292 296 298 297 300 301 297 297 297 295 293 291 288 286 286 286
266 267 267 268 269 270 270 270 270 271 271 271 271 271 272 272 272 273 273 273 273 273 275 275 275 277 278 279 281 282 284 285 285 285 284 282 280 278 275 273 272 271 271 270 269 268 269 270 272 272 271 271 272 273 274 274 275 275 275 276 279 282 283 285 286 286 286 286 285 286 288 289 292 299 301 302 306 305 301 301 300 300 302 301 299 297 296 294
264 264 266 267 269 269 269 269 269 269 269 270 270 271 271 271 272 272 273 274 273 274 276 276 276 277 278 280 281 283 285 285 285 285 284 283 281 279 277 275 273 273 272 270 268 269 269 269 269 270 270 270 271 272 273 273 273 272 273 276 278 279 281 283 283 283 285 286 286 288 289 290 293 300 303 303 306 303 300 300 300 301 304 305 306 304 302 300
263 265 267 268 268 267 267 267 267 268 269 269 270 270 271 272 272 273 273 274 274 274 276 277 278 279 280 281 282 283 284 284 285 284 283 282 281 279 278 277 275 273 272 271 270 270 270 268 267 267 268 268 269 271 271 271 271 271 273 276 277 278 280 281 282 283 284 285 285 287 290 292 295 298 300 301 303 301 298 299 300 301 303 305 307 305 301 299
263 264 265 265 266 266 266 266 267 267 268 269 269 270 271 272 272 273 273 274 274 274 275 277 278 280 281 282 282 282 282 282 282 282 282 282 280 279 278 277 276 273 273 273 273 273 271 269 267 266 266 266 267 268 268 268 270 271 274 277 279 280 280 282 283 283 284 285 284 286 291 294 296 299 299 299 300 298 297 299 299 301 302 303 304 301 298 296
263 264 263 263 264 264 264 266 266 267 267 268 268 269 269 270 270 271 272 272 272 273 276 278 279 280 281 282 281 280 279 278 278 278 279 279 279 278 277 277 276 276 275 274 275 276 275 273 271 270 269 269 268 268 269 271 273 274 276 279 281 282 283 284 284 284 286 285 284 288 293 296 298 299 298 298 298 296 296 297 298 300 302 302 301 298 295 294
262 263 262 262 260 258 260 263 265 267 266 266 266 267 267 267 268 271 271 271 272 275 278 278 278 279 280 279 279 278 277 276 275 274 274 275 276 277 277 277 277 277 276 276 277 277 276 276 275 275 275 275 274 274 275 277 279 280 281 282 284 284 284 284 284 285 286 285 286 290 294 296 296 296 294 295 295 294 295 296 297 299 299 299 297 294 292 292
265 265 265 264 261 259 261 264 267 267 266 266 266 266 266 266 268 270 271 272 274 276 277 278 278 278 277 277 277 277 276 275 273 273 272 273 274 275 277 277 278 278 278 278 278 277 277 277 277 277 278 279 280 280 280 281 282 284 284 284 285 285 285 285 285 285 286 287 288 291 293 292 291 290 291 292 292 292 294 296 296 296 296 294 291 289 290 291
263 265 265 265 264 264 266 268 269 267 266 266 266 266 268 270 270 270 271 274 277 278 279 279 278 277 276 276 275 274 274 273 273 273 273 273 274 274 275 275 276 278 278 279 278 278 279 279 280 280 281 281 281 281 282 283 283 284 284 284 285 285 286 286 286 287 288 290 290 290 290 288 286 287 288 288 289 291 293 293 293 292 291 289 287 287 289 288
256 258 259 259 259 259 260 261 262 263 263 265 266 267 268 270 270 272 274 276 279 280 280 279 278 277 276 275 273 272 272 272 273 274 274 275 275 274 274 275 278 279 280 281 281 282 281 281 282 283 282 282 282 283 284 284 284 283 283 283 283 284 285 285 287 288 289 290 289 287 286 285 285 287 287 288 289 289 289 289 289 288 288 288 287 286 286 284
251 253 254 255 257 258 259 259 261 263 264 266 267 267 267 269 271 273 275 276 278 279 278 278 277 275 273 272 272 273 275 274 274 275 276 276 276 275 276 277 279 281 282 283 283 283 283 282 283 283 283 283 284 285 284 284 285 284 284 283 282 283 283 284 286 287 287 286 284 284 284 284 285 287 287 288 289 288 287 287 287 287 287 287 286 285 284 283
250 250 251 253 257 262 264 264 265 267 267 268 267 265 267 270 271 271 271 273 277 278 277 275 273 271 269 269 272 276 277 277 277 277 276 276 276 276 277 279 280 280 280 281 281 282 282 282 282 282 283 283 283 283 283 283 283 283 284 283 282 283 283 282 283 283 283 282 280 282 284 285 287 287 286 286 287 286 286 286 286 285 284 284 284 283 283 283
253 253 254 256 260 264 265 265 265 265 263 263 261 261 264 266 266 267 268 271 276 276 275 273 271 270 269 269 272 275 276 276 276 275 275 275 275 275 277 279 280 280 278 278 279 279 279 280 281 281 282 282 282 283 283 283 283 283 284 283 283 284 282 280 280 280 280 279 279 281 284 285 287 286 286 286 286 286 285 284 283 281 280 279 278 278 279 281
256 257 258 261 263 265 266 267 267 266 265 266 265 262 264 266 268 271 273 274 276 274 272 270 269 269 269 270 272 273 272 271 270 271 272 272 273 274 276 278 278 279 278 278 278 278 278 279 280 281 281 281 282 283 282 282 282 282 282 282 282 281 279 279 280 280 280 279 280 282 283 283 283 283 284 285 285 285 283 281 280 279 279 277 276 276 278 279
257 259 262 265 266 267 268 268 269 269 270 271 270 269 269 272 274 276 276 274 272 269 266 266 267 267 267 269 271 271 270 269 268 268 268 270 272 274 276 277 278 279 280 280 280 280 281 280 280 281 282 282 282 281 282 282 281 280 280 280 279 278 277 278 279 280 280 279 280 281 281 279 278 279 281 282 283 283 282 281 281 282 282 280 280 281 281 279
262 263 265 268 269 269 270 270 270 270 270 270 271 272 272 272 272 273 271 268 264 262 262 262 264 265 265 267 268 269 270 269 269 270 270 271 274 276 277 278 281 282 282 282 282 282 282 281 280 282 281 280 281 281 281 282 280 279 278 277 276 276 276 276 275 276 277 277 278 279 277 276 278 280 280 281 282 281 282 283 285 285 284 283 283 283 281 281
265 266 267 269 269 269 269 269 269 269 270 271 272 271 270 269 268 267 265 262 260 260 261 262 263 265 265 266 267 269 271 270 271 273 275 276 279 281 281 282 284 284 284 283 283 282 282 280 281 281 279 279 281 281 281 279 277 276 276 275 276 276 276 276 275 275 276 276 276 277 276 276 279 280 280 279 279 280 282 284 285 286 285 284 283 282 281 281
265 265 266 267 267 266 266 266 266 266 265 264 263 262 262 262 261 260 257 256 257 259 262 264 266 268 269 270 273 275 276 276 276 277 278 280 282 283 283 284 284 283 282 282 282 282 281 280 280 280 279 279 281 281 280 277 275 275 275 275 276 276 276 276 276 276 276 274 274 275 276 278 279 279 279 278 277 277 279 281 281 282 282 282 282 282 282 282
264 264 264 264 263 263 262 261 263 262 259 257 255 254 255 255 255 255 255 256 259 263 266 268 271 273 275 277 279 280 280 280 280 281 281 282 283 283 283 283 282 281 280 279 279 279 279 279 279 279 279 279 278 278 278 277 278 278 276 276 277 275 275 275 275 277 275 274 274 275 275 277 278 278 277 277 276 276 277 277 278 279 279 280 280 280 281 282
262 262 262 261 260 260 259 258 258 259 258 258 256 256 257 257 256 258 260 262 264 266 269 271 273 274 276 277 279 280 280 280 280 280 281 282 282 281 281 281 280 278 277 277 277 277 277 277 278 279 279 277 276 277 277 278 279 278 276 277 276 274 274 274 274 275 274 273 275 275 274 276 277 275 274 275 275 275 275 275 276 277 277 278 278 279 280 280
258 258 259 259 260 260 260 260 261 261 261 261 260 260 262 262 262 262 263 265 266 267 269 270 271 272 273 274 276 277 277 277 277 277 278 278 278 278 278 277 276 275 275 275 276 276 275 275 276 276 276 276 277 279 278 277 277 275 274 275 274 274 274 272 272 272 271 271 272 272 272 274 275 274 274 275 276 276 276 276 276 276 276 277 278 279 279 278
256 258 260 261 262 262 263 264 265 265 265 265 265 265 266 266 267 266 266 267 267 268 269 270 271 272 272 273 273 274 275 275 275 275 274 275 274 274 274 274 274 274 274 274 274 274 273 272 273 274 274 276 278 279 278 277 275 273 273 273 272 272 272 272 272 270 270 272 272 271 272 274 274 275 276 276 276 276 275 275 275 275 276 276 276 276 275 274
258 260 263 264 264 265 265 266 266 267 267 267 267 267 267 268 268 267 267 268 268 268 269 270 271 271 272 273 273 273 273 273 272 272 272 272 271 271 271 271 272 272 272 273 273 272 272 272 272 273 273 275 277 278 278 276 274 273 273 273 272 273 273 273 272 272 273 276 274 272 274 276 275 276 277 277 276 275 275 274 274 274 274 273 272 271 271 272
260 263 264 266 266 267 267 267 268 269 269 268 268 268 268 268 268 267 267 267 268 268 269 270 271 271 272 272 272 271 271 270 268 269 270 270 269 269 269 270 270 271 271 271 271 271 271 271 272 272 273 274 275 276 276 275 274 274 274 274 274 275 274 274 274 276 277 277 276 276 277 278 278 278 279 278 278 277 276 275 274 273 272 272 271 271 271 271
262 264 265 266 266 267 268 269 269 269 269 268 268 268 268 268 268 268 268 268 268 269 269 270 270 270 270 270 269 268 268 267 267 268 269 269 269 269 269 270 269 270 270 270 270 270 270 270 272 272 272 272 273 275 275 274 273 273 273 274 275 276 276 276 277 277 278 277 278 280 280 279 280 281 280 279 278 278 277 276 275 274 273 272 271 271 271 271
263 264 265 266 266 267 268 268 268 267 267 267 267 268 269 269 269 269 268 268 268 268 268 268 268 268 268 267 266 267 267 266 266 267 268 268 268 269 269 269 269 270 270 270 270 270 270 272 273 272 271 272 273 274 275 274 273 273 273 274 275 276 277 277 277 278 278 279 280 282 281 281 282 283 282 280 278 277 277 276 275 274 274 273 272 272 272 272
264 265 265 266 266 267 267 267 266 266 266 266 267 269 269 268 268 268 267 267 267 266 266 266 266 265 265 265 265 265 266 266 266 267 267 267 268 268 268 269 270 270 270 270 270 270 271 272 273 273 273 273 273 274 273 272 273 273 273 274 276 278 278 277 278 279 279 280 281 282 281 281 282 283 281 280 279 278 277 276 275 274 273 273 273 273 273 273
263 264 265 265 266 266 266 266 266 266 265 266 268 269 268 267 266 266 265 265 265 265 264 264 264 264 264 263 263 264 265 266 267 268 268 268 268 268 269 270 270 270 271 270 270 270 271 272 273 273 273 273 273 274 273 272 272 272 272 275 278 280 279 279 280 280 280 281 282 282 282 283 284 283 282 281 280 279 278 278 276 275 274 273 273 273 273 273
263 264 264 264 265 265 265 265 265 265 266 267 268 266 265 265 264 263 263 264 264 264 264 263 263 263 263 263 263 264 265 266 267 267 268 268 268 269 269 270 271 271 272 272 272 272 273 273 273 273 273 273 274 275 275 275 273 273 275 279 281 280 280 281 281 281 282 283 283 283 284 285 285 283 282 281 281 280 279 278 277 276 275 274 274 274 274 274
Height
5869 5869 5870 5870 5870 5871 5871 5871 5871 5871 5871 5871 5871 5871 5872 5872 5872 5872 5872 5872 5872 5872 5873 5873 5873 5873 5872 5872 5872 5872 5871 5871 5871 5871 5870 5870 5870 5870 5869 5869 5868 5868 5868 5868 5867 5866 5866 5865 5865 5865 5864 5864 5863 5863 5863 5862 5862 5861 5860 5860 5859 5858 5857 5857 5856 5855 5855 5854 5853 5853 5852 5851 5850 5849 5848 5847 5846 5845 5844 5842 5840 5841 5840 5839 5839 5839 5839 5838
5867 5867 5868 5868 5868 5869 5869 5869 5869 5869 5869 5870 5870 5870 5870 5870 5870 5870 5870 5870 5870 5871 5871 5871 5871 5871 5871 5871 5871 5870 5870 5869 5868 5868 5869 5868 5868 5868 5867 5867 5866 5866 5866 5865 5865 5864 5864 5863 5863 5863 5862 5862 5861 5861 5861 5860 5859 5859 5858 5858 5857 5855 5855 5854 5853 5852 5852 5852 5851 5850 5850 5849 5848 5847 5846 5846 5845 5843 5842 5840 5837 5839 5838 5837 5837 5837 5837 5837
5865 5865 5866 5866 5866 5867 5867 5867 5867 5868 5868 5868 5868 5868 5868 5868 5868 5868 5868 5868 5869 5869 5869 5869 5869 5869 5869 5869 5869 5868 5867 5866 5866 5866 5867 5866 5866 5866 5865 5865 5864 5864 5864 5863 5862 5862 5861 5861 5860 5860 5860 5860 5859 5859 5859 5858 5857 5857 5856 5855 5855 5853 5853 5852 5851 5850 5849 5849 5849 5847 5847 5847 5846 5845 5844 5843 5843 5841 5840 5838 5836 5836 5836 5835 5834 5835 5835 5835
5863 5863 5863 5864 5864 5865 5865 5865 5865 5866 5866 5866 5866 5866 5866 5866 5866 5866 5866 5867 5867 5867 5867 5867 5867 5867 5867 5867 5867 5866 5865 5864 5863 5864 5864 5864 5863 5863 5863 5862 5862 5861 5861 5861 5860 5859 5859 5858 5858 5858 5858 5857 5857 5856 5856 5855 5854 5854 5854 5852 5851 5850 5850 5849 5848 5847 5847 5846 5846 5845 5844 5844 5844 5843 5842 5841 5841 5841 5838 5835 5835 5835 5834 5833 5832 5833 5833 5832
5861 5861 5861 5862 5862 5863 5863 5863 5864 5864 5864 5864 5864 5864 5864 5864 5864 5864 5864 5864 5864 5864 5864 5865 5865 5865 5865 5865 5864 5864 5863 5861 5861 5861 5862 5861 5860 5861 5860 5860 5859 5859 5858 5858 5857 5857 5856 5856 5856 5855 5855 5855 5855 5854 5853 5852 5851 5851 5852 5850 5848 5847 5847 5847 5845 5844 5844 5843 5842 5841 5840 5840 5841 5840 5839 5838 5838 5839 5836 5832 5833 5833 5832 5831 5831 5830 5830 5830
5858 5859 5859 5859 5860 5860 5861 5861 5861 5861 5861 5861 5861 5862 5861 5861 5861 5861 5861 5861 5862 5862 5862 5862 5862 5862 5862 5862 5862 5862 5861 5858 5857 5859 5859 5858 5858 5858 5857 5857 5857 5856 5856 5855 5855 5854 5854 5853 5853 5853 5853 5853 5852 5852 5850 5850 5848 5848 5849 5847 5845 5844 5844 5843 5842 5841 5841 5839 5839 5837 5837 5837 5837 5836 5836 5836 5836 5837 5834 5830 5830 5831 5830 5829 5829 5829 5828 5828
5856 5856 5856 5857 5857 5857 5858 5858 5858 5858 5859 5859 5859 5859 5858 5859 5858 5858 5858 5859 5859 5858 5859 5859 5859 5859 5859 5860 5859 5859 5858 5854 5853 5856 5856 5855 5855 5854 5854 5854 5854 5853 5853 5852 5852 5852 5851 5851 5851 5850 5850 5850 5849 5849 5847 5846 5845 5845 5846 5844 5843 5842 5841 5840 5838 5838 5837 5836 5835 5833 5833 5834 5833 5832 5833 5834 5834 5834 5830 5827 5827 5828 5828 5827 5827 5826 5826 5826
5852 5853 5853 5853 5854 5854 5854 5854 5855 5855 5855 5855 5855 5855 5855 5855 5855 5855 5855 5855 5856 5855 5855 5855 5856 5856 5856 5856 5856 5856 5855 5850 5849 5852 5852 5852 5852 5851 5851 5851 5851 5850 5850 5849 5849 5848 5848 5848 5847 5847 5847 5847 5846 5845 5844 5842 5842 5842 5842 5841 5840 5839 5838 5836 5835 5835 5833 5832 5830 5830 5831 5832 5830 5828 5830 5832 5831 5829 5827 5826 5826 5825 5825 5825 5824 5824 5823 5824
5849 5849 5849 5850 5850 5850 5851 5851 5851 5851 5851 5852 5852 5852 5852 5852 5852 5852 5852 5852 5852 5852 5852 5852 5852 5852 5852 5853 5852 5854 5852 5846 5846 5848 5848 5849 5848 5848 5848 5848 5848 5847 5847 5846 5846 5845 5845 5844 5844 5844 5843 5844 5843 5842 5840 5838 5838 5838 5838 5837 5837 5836 5835 5833 5832 5831 5829 5827 5826 5826 5829 5829 5827 5825 5827 5828 5825 5824 5824 5824 5823 5822 5823 5822 5822 5821 5821 5821
5845 5845 5846 5846 5846 5847 5847 5847 5847 5847 5848 5848 5848 5848 5848 5848 5848 5848 5848 5848 5848 5848 5848 5848 5848 5848 5849 5849 5849 5851 5848 5843 5844 5845 5844 5845 5845 5845 5845 5845 5845 5844 5843 5843 5842 5842 5841 5841 5841 5840 5839 5840 5840 5838 5837 5835 5834 5834 5833 5833 5833 5832 5831 5830 5829 5827 5824 5823 5822 5822 5826 5828 5825 5823 5825 5823 5819 5821 5822 5822 5821 5820 5820 5820 5819 5819 5818 5817
5841 5842 5842 5842 5843 5843 5844 5844 5844 5844 5844 5844 5844 5844 5844 5844 5844 5844 5844 5844 5844 5844 5844 5844 5844 5845 5845 5846 5847 5847 5844 5842 5842 5841 5841 5842 5842 5842 5842 5841 5841 5840 5840 5840 5839 5838 5837 5837 5837 5836 5835 5836 5836 5834 5834 5832 5831 5830 5829 5829 5830 5828 5828 5827 5825 5824 5821 5820 5819 5816 5820 5825 5822 5821 5823 5820 5817 5818 5819 5819 5818 5817 5817 5816 5815 5815 5814 5814
5837 5838 5838 5839 5839 5840 5840 5840 5840 5841 5841 5841 5841 5841 5840 5840 5840 5840 5840 5840 5841 5840 5840 5841 5841 5841 5842 5843 5844 5843 5841 5840 5839 5838 5838 5838 5838 5839 5838 5838 5837 5836 5836 5836 5835 5834 5833 5833 5832 5831 5831 5831 5831 5830 5830 5829 5827 5827 5824 5824 5826 5824 5824 5825 5822 5821 5818 5817 5816 5811 5812 5820 5821 5819 5819 5816 5815 5815 5814 5816 5815 5813 5813 5812 5811 5811 5811 5810
5833 5834 5834 5835 5835 5836 5836 5836 5837 5837 5837 5837 5837 5837 5837 5837 5837 5837 5837 5837 5837 5837 5837 5837 5837 5837 5838 5841 5841 5839 5838 5838 5836 5835 5835 5835 5835 5835 5834 5834 5833 5833 5832 5832 5831 5831 5829 5829 5828 5827 5828 5827 5827 5826 5825 5825 5824 5823 5820 5819 5821 5820 5820 5822 5820 5819 5815 5812 5812 5806 5804 5813 5819 5817 5814 5812 5812 5811 5810 5811 5811 5809 5808 5808 5807 5807 5806 5806
5829 5829 5830 5830 5831 5831 5831 5832 5832 5833 5833 5833 5833 5833 5833 5833 5833 5833 5833 5833 5832 5832 5832 5832 5833 5833 5834 5837 5838 5836 5835 5834 5833 5832 5831 5832 5832 5831 5831 5830 5829 5829 5828 5828 5827 5826 5825 5825 5824 5823 5824 5823 5822 5822 5821 5820 5820 5820 5816 5814 5815 5814 5816 5819 5818 5817 5812 5808 5807 5802 5797 5805 5816 5816 5811 5809 5807 5807 5806 5808 5808 5805 5804 5804 5803 5802 5801 5801
5824 5824 5825 5825 5826 5826 5827 5827 5827 5828 5829 5829 5829 5829 5829 5829 5829 5828 5828 5828 5828 5828 5828 5828 5828 5827 5828 5832 5833 5832 5831 5830 5828 5828 5828 5828 5828 5828 5827 5826 5825 5825 5824 5824 5823 5822 5822 5820 5819 5819 5819 5819 5818 5818 5817 5814 5814 5815 5812 5810 5810 5808 5810 5813 5813 5814 5810 5803 5801 5799 5795 5798 5809 5813 5810 5806 5803 5801 5802 5804 5804 5802 5800 5800 5798 5797 5797 5796
5820 5820 5820 5821 5821 5822 5822 5822 5823 5823 5824 5824 5824 5824 5824 5824 5824 5824 5824 5824 5823 5823 5823 5823 5823 5822 5822 5826 5828 5827 5826 5825 5824 5823 5823 5823 5824 5824 5823 5822 5821 5821 5820 5820 5819 5818 5818 5816 5815 5814 5814 5815 5815 5813 5812 5809 5809 5810 5807 5805 5807 5805 5804 5806 5808 5809 5807 5800 5795 5795 5795 5794 5800 5806 5806 5803 5799 5797 5797 5799 5800 5798 5796 5795 5794 5794 5793 5793
5815 5816 5816 5816 5817 5817 5818 5818 5818 5818 5819 5819 5820 5820 5820 5820 5820 5819 5819 5819 5818 5819 5818 5817 5818 5817 5817 5820 5822 5822 5822 5820 5819 5819 5818 5819 5819 5819 5819 5818 5817 5816 5815 5815 5814 5814 5813 5811 5811 5809 5809 5811 5811 5809 5806 5803 5804 5805 5802 5801 5802 5801 5800 5800 5803 5804 5801 5797 5793 5791 5792 5791 5793 5798 5802 5800 5796 5793 5793 5794 5795 5794 5793 5791 5790 5789 5789 5789
5811 5811 5812 5812 5812 5813 5813 5813 5813 5813 5814 5814 5815 5815 5815 5815 5815 5815 5814 5814 5814 5814 5813 5813 5814 5812 5812 5814 5816 5817 5817 5815 5814 5814 5814 5814 5814 5814 5814 5813 5813 5812 5811 5810 5809 5809 5808 5806 5806 5803 5804 5808 5808 5804 5800 5799 5800 5799 5797 5797 5795 5795 5795 5795 5798 5798 5795 5794 5792 5789 5787 5786 5786 5789 5793 5795 5793 5791 5789 5789 5790 5790 5789 5787 5785 5784 5784 5784
5807 5807 5807 5808 5808 5808 5809 5809 5809 5809 5809 5809 5810 5810 5810 5810 5810 5809 5809 5810 5809 5809 5808 5808 5809 5808 5807 5809 5811 5811 5811 5811 5810 5809 5810 5810 5810 5809 5809 5808 5808 5807 5806 5805 5804 5804 5803 5801 5800 5799 5801 5804 5801 5798 5797 5796 5795 5793 5793 5792 5790 5790 5790 5792 5793 5790 5789 5789 5788 5787 5784 5781 5781 5783 5785 5788 5788 5787 5785 5784 5785 5785 5784 5783 5781 5781 5781 5780
5802 5803 5803 5803 5803 5804 5804 5804 5804 5804 5804 5804 5804 5804 5804 5805 5805 5803 5805 5805 5804 5804 5804 5803 5804 5804 5804 5804 5804 5804 5805 5806 5806 5806 5806 5806 5805 5805 5803 5803 5803 5802 5802 5801 5799 5799 5799 5795 5793 5795 5799 5798 5793 5792 5793 5793 5791 5789 5788 5788 5786 5785 5785 5787 5787 5784 5784 5784 5783 5784 5783 5779 5778 5778 5779 5780 5782 5783 5783 5781 5780 5780 5779 5778 5778 5778 5778 5777
5797 5798 5798 5799 5799 5799 5799 5799 5799 5799 5799 5799 5799 5799 5799 5799 5799 5798 5799 5800 5800 5800 5799 5799 5798 5799 5800 5799 5798 5798 5798 5799 5801 5802 5802 5801 5801 5799 5798 5799 5797 5797 5797 5796 5794 5794 5793 5790 5789 5792 5794 5792 5789 5788 5788 5788 5787 5785 5783 5783 5782 5781 5780 5781 5781 5779 5779 5777 5776 5776 5777 5777 5776 5774 5774 5774 5775 5778 5779 5778 5777 5776 5774 5774 5775 5775 5774 5774
5793 5793 5794 5794 5794 5794 5794 5794 5794 5794 5794 5794 5794 5794 5793 5793 5793 5792 5792 5793 5796 5796 5794 5794 5793 5793 5794 5793 5793 5794 5792 5793 5794 5796 5797 5796 5796 5794 5793 5793 5792 5791 5790 5790 5790 5789 5787 5784 5785 5788 5787 5785 5786 5785 5782 5782 5782 5781 5779 5778 5777 5777 5775 5774 5774 5774 5774 5772 5770 5769 5769 5771 5771 5771 5772 5770 5770 5772 5772 5772 5772 5771 5770 5771 5771 5771 5770 5770
5787 5788 5789 5789 5790 5790 5789 5789 5789 5789 5789 5789 5789 5789 5788 5788 5787 5787 5786 5786 5789 5792 5790 5789 5788 5788 5788 5786 5788 5788 5787 5788 5788 5789 5792 5790 5790 5789 5788 5788 5786 5785 5784 5785 5786 5784 5781 5778 5780 5784 5781 5780 5780 5779 5778 5777 5777 5777 5776 5773 5771 5772 5770 5768 5767 5767 5769 5768 5765 5764 5763 5763 5764 5764 5767 5766 5767 5768 5766 5765 5765 5766 5767 5767 5767 5766 5766 5766
5782 5784 5784 5785 5785 5785 5784 5784 5784 5784 5784 5784 5784 5783 5783 5783 5782 5782 5782 5780 5782 5785 5786 5786 5783 5782 5782 5781 5782 5782 5781 5783 5782 5783 5785 5783 5783 5784 5783 5782 5781 5780 5779 5780 5780 5778 5776 5773 5775 5778 5776 5774 5774 5773 5773 5772 5772 5772 5770 5768 5767 5767 5765 5764 5762 5760 5762 5762 5760 5760 5758 5757 5758 5758 5759 5760 5761 5761 5760 5759 5758 5759 5761 5762 5761 5761 5760 5761
5777 5778 5778 5779 5780 5779 5779 5779 5779 5779 5779 5779 5778 5778 5778 5778 5777 5777 5777 5775 5775 5777 5779 5780 5779 5777 5777 5776 5776 5777 5776 5777 5777 5777 5777 5776 5776 5777 5776 5776 5775 5774 5774 5774 5773 5772 5771 5770 5770 5771 5769 5769 5768 5768 5767 5766 5767 5766 5764 5764 5764 5763 5760 5760 5758 5755 5755 5754 5754 5755 5753 5751 5753 5754 5752 5751 5754 5753 5750 5751 5752 5753 5754 5754 5754 5754 5754 5754
5772 5772 5773 5773 5774 5774 5774 5773 5773 5773 5773 5774 5773 5773 5773 5772 5772 5772 5772 5770 5769 5770 5770 5772 5772 5772 5773 5772 5771 5772 5771 5771 5771 5771 5771 5771 5770 5770 5770 5770 5770 5769 5768 5768 5767 5767 5767 5767 5766 5765 5763 5764 5763 5763 5762 5761 5761 5759 5759 5761 5760 5759 5757 5756 5755 5752 5750 5748 5747 5748 5746 5745 5747 5750 5748 5745 5747 5745 5742 5743 5745 5746 5746 5746 5746 5747 5748 5749
5765 5766 5767 5767 5767 5767 5767 5767 5768 5768 5767 5768 5768 5767 5767 5767 5767 5767 5767 5765 5764 5764 5763 5764 5766 5766 5767 5767 5767 5767 5766 5765 5765 5765 5765 5765 5765 5765 5764 5764 5765 5764 5763 5763 5762 5762 5763 5762 5761 5760 5759 5759 5759 5759 5758 5756 5755 5754 5755 5756 5755 5755 5754 5752 5751 5748 5746 5744 5742 5742 5741 5740 5741 5744 5744 5742 5742 5738 5735 5737 5739 5739 5739 5740 5741 5741 5741 5742
5759 5760 5761 5760 5760 5761 5761 5762 5762 5762 5762 5762 5763 5762 5762 5762 5762 5763 5762 5759 5758 5758 5758 5759 5760 5761 5761 5761 5761 5762 5761 5761 5760 5759 5760 5759 5759 5759 5759 5759 5759 5758 5758 5758 5756 5757 5758 5757 5756 5756 5755 5754 5755 5754 5753 5752 5750 5750 5751 5750 5750 5751 5749 5748 5745 5743 5741 5738 5737 5738 5737 5735 5736 5738 5737 5736 5736 5731 5729 5732 5732 5732 5734 5734 5736 5736 5735 5735
5753 5753 5754 5754 5755 5755 5755 5755 5755 5756 5756 5757 5757 5756 5757 5757 5757 5758 5756 5754 5752 5752 5754 5755 5755 5756 5756 5755 5755 5756 5755 5756 5755 5754 5754 5754 5753 5754 5753 5753 5753 5753 5753 5753 5753 5753 5753 5753 5752 5752 5752 5751 5751 5750 5749 5748 5747 5747 5747 5745 5745 5744 5744 5743 5739 5737 5735 5732 5733 5734 5732 5730 5730 5732 5730 5729 5729 5724 5725 5729 5727 5727 5730 5729 5729 5730 5730 5729
5746 5746 5747 5748 5749 5749 5749 5749 5750 5750 5750 5751 5751 5751 5751 5751 5753 5752 5749 5748 5747 5748 5750 5750 5750 5751 5750 5749 5749 5749 5750 5750 5750 5750 5749 5749 5749 5749 5749 5748 5748 5748 5747 5747 5748 5748 5748 5748 5748 5748 5748 5747 5746 5746 5745 5745 5743 5743 5742 5740 5739 5738 5737 5736 5734 5732 5729 5727 5729 5729 5728 5726 5726 5726 5724 5724 5724 5718 5719 5724 5722 5722 5725 5724 5722 5723 5723 5723
5740 5740 5741 5742 5742 5743 5743 5743 5744 5744 5744 5745 5745 5745 5746 5746 5747 5746 5742 5743 5744 5744 5746 5745 5745 5746 5745 5744 5743 5742 5743 5743 5743 5744 5744 5744 5744 5744 5744 5743 5742 5742 5741 5742 5743 5743 5743 5743 5743 5743 5743 5742 5741 5740 5740 5740 5739 5737 5737 5735 5732 5731 5730 5728 5727 5726 5723 5723 5725 5724 5722 5721 5720 5721 5720 5719 5719 5715 5714 5718 5718 5716 5717 5718 5716 5715 5716 5715
5734 5734 5735 5735 5736 5736 5737 5737 5737 5737 5738 5739 5739 5739 5740 5739 5740 5738 5737 5739 5739 5739 5742 5740 5739 5740 5738 5738 5738 5737 5737 5736 5736 5737 5737 5738 5739 5740 5740 5738 5738 5737 5736 5736 5735 5736 5737 5738 5737 5736 5737 5737 5734 5733 5733 5734 5734 5732 5731 5730 5726 5725 5723 5721 5720 5718 5718 5719 5719 5717 5715 5713 5714 5716 5716 5715 5715 5714 5712 5712 5713 5712 5710 5712 5711 5709 5709 5708
5729 5730 5730 5730 5730 5730 5730 5730 5730 5731 5732 5732 5733 5734 5734 5732 5732 5732 5733 5735 5734 5734 5736 5733 5732 5734 5733 5732 5732 5731 5731 5731 5731 5731 5731 5732 5733 5734 5734 5733 5733 5731 5730 5730 5729 5729 5730 5731 5731 5730 5731 5731 5728 5727 5727 5726 5726 5725 5725 5724 5721 5720 5717 5713 5714 5713 5712 5714 5712 5709 5708 5707 5707 5708 5708 5709 5710 5712 5710 5708 5708 5706 5704 5704 5704 5703 5701 5700
5723 5724 5724 5725 5725 5723 5723 5723 5724 5724 5725 5726 5727 5728 5727 5726 5727 5728 5728 5729 5728 5728 5729 5727 5727 5728 5727 5726 5725 5725 5725 5724 5726 5727 5725 5726 5726 5727 5728 5728 5728 5725 5723 5723 5723 5723 5723 5724 5725 5723 5723 5724 5723 5722 5720 5718 5718 5718 5719 5718 5715 5716 5712 5708 5709 5707 5705 5706 5703 5702 5701 5702 5703 5701 5701 5702 5702 5704 5704 5702 5701 5700 5698 5697 5695 5694 5692 5691
5716 5717 5718 5719 5718 5717 5717 5717 5718 5718 5719 5720 5720 5721 5721 5721 5722 5722 5722 5723 5722 5722 5723 5722 5721 5721 5720 5721 5721 5721 5719 5717 5719 5721 5719 5719 5720 5720 5722 5721 5721 5719 5717 5716 5716 5716 5717 5718 5718 5716 5715 5717 5717 5716 5714 5713 5711 5710 5713 5711 5708 5711 5708 5703 5702 5701 5699 5696 5694 5695 5694 5695 5698 5694 5694 5696 5695 5696 5696 5694 5694 5693 5691 5690 5687 5686 5683 5681
5709 5710 5711 5712 5712 5711 5710 5711 5712 5713 5713 5713 5713 5714 5716 5717 5717 5716 5717 5718 5716 5715 5716 5715 5715 5715 5714 5715 5715 5715 5714 5711 5712 5713 5712 5713 5713 5714 5716 5715 5714 5713 5711 5710 5708 5708 5710 5710 5712 5711 5708 5707 5710 5709 5708 5707 5703 5702 5705 5703 5702 5704 5702 5696 5694 5695 5693 5686 5685 5691 5689 5690 5692 5685 5684 5689 5689 5688 5687 5686 5686 5684 5683 5682 5681 5680 5678 5675
5702 5703 5705 5705 5705 5705 5704 5704 5704 5705 5706 5704 5705 5709 5711 5712 5712 5710 5710 5712 5709 5708 5709 5708 5708 5709 5708 5708 5708 5708 5708 5707 5706 5706 5706 5705 5705 5708 5710 5708 5708 5707 5704 5704 5701 5699 5702 5703 5705 5706 5701 5699 5703 5702 5700 5700 5696 5694 5695 5696 5697 5696 5693 5690 5685 5685 5686 5678 5677 5685 5684 5685 5687 5680 5677 5680 5680 5679 5678 5676 5677 5676 5674 5674 5673 5672 5670 5669
5695 5696 5699 5698 5697 5698 5697 5697 5697 5698 5698 5696 5698 5703 5704 5705 5707 5704 5702 5704 5702 5700 5701 5701 5701 5702 5701 5702 5701 5699 5700 5701 5699 5700 5701 5699 5698 5701 5702 5699 5700 5700 5698 5697 5693 5690 5692 5692 5696 5701 5696 5691 5694 5695 5693 5693 5690 5688 5687 5687 5688 5686 5685 5685 5680 5676 5677 5672 5670 5676 5677 5677 5680 5678 5676 5672 5669 5670 5667 5666 5666 5666 5665 5664 5663 5662 5660 5658
5686 5688 5691 5691 5689 5690 5690 5689 5690 5691 5690 5690 5693 5696 5698 5699 5699 5697 5696 5697 5695 5693 5695 5694 5694 5694 5694 5696 5695 5693 5693 5694 5693 5692 5692 5693 5692 5694 5694 5692 5692 5692 5690 5689 5686 5683 5683 5681 5684 5693 5690 5684 5686 5688 5687 5686 5683 5682 5681 5679 5679 5678 5677 5677 5674 5672 5670 5665 5664 5666 5666 5669 5673 5673 5671 5666 5662 5660 5657 5655 5655 5654 5654 5653 5652 5651 5649 5648
5678 5680 5684 5685 5682 5682 5683 5681 5682 5682 5682 5685 5687 5688 5690 5690 5691 5692 5691 5690 5688 5686 5687 5687 5687 5687 5688 5689 5689 5688 5686 5686 5687 5685 5684 5686 5687 5686 5685 5684 5684 5683 5681 5680 5678 5675 5675 5671 5672 5680 5681 5678 5679 5680 5680 5680 5676 5673 5672 5671 5671 5671 5669 5667 5665 5667 5665 5658 5657 5656 5652 5658 5666 5666 5663 5660 5656 5653 5650 5648 5646 5644 5643 5641 5640 5639 5639 5638
5671 5672 5678 5679 5674 5675 5676 5673 5675 5677 5677 5680 5681 5680 5680 5682 5684 5685 5684 5683 5680 5679 5679 5680 5679 5679 5681 5682 5681 5680 5678 5677 5679 5679 5677 5679 5680 5678 5677 5677 5676 5674 5673 5673 5670 5668 5667 5664 5662 5666 5670 5672 5674 5672 5670 5669 5668 5667 5664 5663 5664 5663 5661 5658 5655 5659 5659 5652 5650 5647 5641 5646 5657 5658 5654 5652 5649 5647 5645 5642 5639 5637 5634 5632 5630 5629 5628 5628
5663 5665 5670 5671 5667 5668 5668 5665 5668 5670 5670 5674 5677 5675 5674 5676 5677 5677 5676 5675 5673 5671 5671 5671 5671 5671 5672 5672 5671 5670 5669 5668 5669 5670 5669 5671 5671 5669 5669 5670 5668 5667 5666 5664 5664 5662 5660 5657 5653 5655 5658 5662 5666 5667 5662 5658 5659 5659 5656 5657 5658 5655 5654 5651 5646 5648 5649 5643 5643 5641 5632 5634 5645 5648 5646 5643 5642 5642 5639 5636 5633 5629 5627 5625 5623 5621 5619 5618
5656 5657 5661 5661 5660 5660 5658 5657 5662 5662 5662 5668 5671 5668 5667 5669 5670 5669 5668 5667 5665 5664 5664 5663 5664 5664 5664 5664 5663 5662 5661 5659 5660 5663 5661 5662 5664 5662 5661 5662 5661 5660 5659 5657 5657 5656 5653 5650 5647 5646 5648 5650 5655 5660 5657 5652 5651 5649 5647 5650 5650 5647 5648 5645 5639 5639 5636 5634 5637 5633 5623 5625 5633 5637 5637 5636 5634 5633 5630 5628 5626 5623 5619 5617 5614 5613 5611 5609
5649 5649 5652 5652 5652 5651 5649 5651 5656 5656 5657 5660 5660 5659 5660 5660 5661 5661 5660 5659 5658 5658 5656 5655 5656 5656 5657 5657 5655 5654 5654 5651 5652 5656 5654 5654 5656 5655 5655 5655 5654 5653 5652 5650 5649 5648 5646 5644 5642 5639 5637 5639 5644 5650 5650 5646 5644 5640 5639 5642 5640 5640 5640 5635 5633 5632 5624 5624 5630 5623 5614 5618 5623 5625 5628 5628 5626 5624 5621 5619 5618 5615 5612 5609 5606 5605 5603 5600
5641 5641 5642 5643 5643 5641 5641 5646 5649 5647 5648 5650 5649 5650 5652 5650 5651 5653 5652 5650 5650 5649 5648 5647 5649 5648 5648 5649 5646 5646 5647 5644 5644 5647 5648 5648 5648 5648 5648 5647 5646 5646 5645 5643 5642 5640 5637 5636 5636 5633 5629 5629 5634 5639 5641 5638 5634 5631 5631 5632 5632 5632 5632 5628 5626 5622 5615 5617 5620 5613 5607 5611 5615 5616 5618 5618 5616 5613 5610 5609 5608 5606 5603 5602 5599 5596 5594 5591
5632 5631 5633 5634 5633 5632 5635 5640 5640 5638 5640 5641 5639 5641 5643 5642 5641 5642 5643 5640 5640 5640 5639 5638 5640 5640 5639 5639 5637 5637 5639 5637 5635 5636 5640 5641 5640 5640 5641 5640 5639 5638 5637 5636 5634 5631 5627 5626 5629 5627 5623 5623 5625 5627 5631 5629 5623 5620 5622 5623 5623 5624 5624 5621 5616 5611 5609 5608 5604 5604 5604 5602 5603 5609 5609 5607 5604 5601 5599 5599 5598 5596 5593 5592 5591 5587 5584 5582
5623 5623 5625 5626 5624 5623 5627 5631 5631 5630 5631 5631 5630 5632 5634 5633 5630 5631 5633 5632 5631 5632 5631 5630 5631 5631 5631 5631 5628 5628 5631 5630 5627 5628 5632 5634 5632 5631 5632 5632 5631 5630 5629 5628 5626 5623 5618 5617 5621 5620 5616 5617 5617 5617 5620 5619 5613 5610 5611 5612 5615 5615 5614 5612 5605 5602 5603 5595 5587 5594 5599 5591 5591 5600 5600 5595 5591 5587 5588 5588 5586 5584 5583 5581 5579 5576 5573 5571
5614 5615 5617 5617 5615 5615 5618 5623 5624 5622 5621 5620 5621 5623 5625 5624 5622 5621 5623 5624 5623 5624 5623 5622 5623 5623 5623 5623 5620 5619 5622 5622 5620 5621 5624 5625 5624 5623 5623 5623 5623 5622 5622 5620 5618 5616 5609 5607 5613 5613 5607 5609 5610 5609 5610 5609 5603 5602 5601 5602 5605 5605 5605 5602 5597 5595 5595 5585 5578 5584 5586 5579 5581 5587 5587 5585 5580 5574 5574 5574 5572 5572 5570 5569 5567 5565 5562 5560
5606 5608 5608 5607 5607 5609 5610 5614 5615 5613 5612 5612 5611 5614 5616 5616 5614 5613 5613 5615 5616 5617 5615 5614 5615 5615 5615 5615 5612 5612 5614 5614 5612 5615 5616 5615 5615 5614 5614 5614 5614 5615 5615 5612 5610 5608 5601 5600 5605 5603 5597 5599 5603 5602 5601 5597 5593 5592 5593 5593 5594 5595 5595 5593 5588 5587 5585 5577 5572 5574 5571 5567 5571 5573 5571 5571 5568 5563 5561 5560 5559 5558 5556 5555 5554 5552 5550 5548
5599 5599 5599 5598 5599 5601 5602 5604 5605 5604 5604 5603 5603 5607 5608 5607 5607 5606 5604 5606 5608 5608 5608 5607 5606 5607 5607 5607 5605 5604 5606 5605 5604 5606 5607 5607 5607 5606 5605 5605 5606 5607 5607 5605 5602 5600 5595 5593 5595 5593 5586 5587 5594 5595 5591 5587 5584 5582 5582 5584 5587 5587 5585 5582 5579 5579 5575 5568 5566 5565 5557 5554 5560 5561 5556 5555 5554 5551 5548 5546 5546 5544 5543 5542 5541 5539 5538 5535
5591 5591 5591 5590 5590 5593 5593 5594 5595 5594 5595 5596 5597 5600 5600 5598 5600 5598 5594 5597 5600 5600 5600 5600 5599 5599 5599 5599 5599 5597 5597 5597 5597 5597 5598 5598 5599 5598 5597 5597 5599 5598 5597 5597 5593 5591 5590 5586 5586 5585 5577 5575 5584 5585 5579 5577 5574 5570 5571 5578 5581 5579 5575 5572 5570 5568 5564 5559 5556 5552 5544 5542 5546 5546 5541 5539 5540 5538 5536 5533 5532 5530 5529 5529 5528 5526 5524 5521
5582 5582 5582 5581 5581 5584 5585 5586 5586 5585 5586 5590 5591 5591 5590 5590 5592 5590 5585 5588 5592 5593 5593 5592 5592 5591 5590 5590 5591 5590 5589 5590 5590 5589 5589 5589 5589 5590 5589 5589 5590 5589 5588 5587 5585 5584 5583 5578 5577 5576 5567 5565 5574 5573 5566 5564 5559 5556 5566 5575 5574 5570 5565 5561 5558 5556 5554 5551 5544 5537 5533 5532 5531 5529 5526 5524 5523 5523 5523 5521 5519 5517 5515 5515 5514 5513 5511 5508